Powrót do katalogu

YAOGAN-31 G

AktywnyMilitariaLEO
NORAD 47691·PAYLOAD·🇨🇳 China

Wystrzelony Feb 24, 2021 z Jiuquan Satellite Launch Center

Loading…

Następne Przeloty (najbliższe 24 godziny)

TLE

ŚwieżeSource: Space-Track

Epoka: Sep 14, 2026, 22:47 UTC

1 47691U 21014A   26257.94992683  .00000000  00000-0  13744-3 0  9999
2 47691  63.4059 327.1555 0184756   0.9599 359.1747 13.45453775272851

Śledź YAOGAN-31 G w czasie rzeczywistym z AllMySat

Download on the App Store